Toronto/Billy Bishop Toronto City Airport

Airport
ICAO code: 
CYTZ
IATA Code: 
YTZ
Summary
ICAO Region: 
NAM
Territory: 
Location: 
Toronto, Ontario,
Serving: 
Toronto
Elevation: 
252 ft
Coordinates: 
Aerial View: 
43° 37' 42.035" N, 79° 23' 45.863" W
Airport WX: 
Lake Effect Snow
Metar
Observation
CYTZ 170200Z AUTO 16010KT 9SM BKN081 OVC095 00/M14 A2979 RMK SLP094
Station
Toronto Island Airport Automated Reporting Station
Date/Time
2022-01-17 02:00:00
Wind direction
160°
Wind speed
10 kts
Lowest cloud amount
broken clouds
Temperature
0°C
Dew point
-14°C
Humidity
33%
Weather condition
n/a

Description

The Billy Bishop Toronto City Airport, more commonly known as the Toronto Island Airport and previously known officially as Toronto City Centre Airport, is a small airport located on the Toronto Islands in Toronto, Ontario, Canada.

Climatology

Humid continental climate (Köppen climate classification Dfa) - characterized by four seasons: cold, windy, snowy winters, mild springs, hot, humid summers, and crisp and relatively short autumns. Precipitation reaches its lowest in January and February and peaks in summer and latter half of spring.

Runways

Designator Length Width Surface Rops
15/33 847 46 ASP Yes/Yes
6/24 894 46 ASP Yes/Yes
8/26 1216 46 ASP Yes/Yes
Airport map: 
Aerial View: 

Accidents and Serious Incidents at or in the vicinity of CYTZ

SKYbrary Partners:

Safety knowledge contributed by: